{"data":{"norad_id":52463,"epoch":"2026-05-25T01:03:56.622240Z","epoch_age_seconds":71138,"freshness":"FRESH","line1":"1 52463U 22049N   26145.04440535  .00001060  00000+0  84661-4 0  9995","line2":"2 52463  53.2141  66.3512 0001194  90.7002 269.4127 15.08841830223910","mean_motion":15.0884183,"eccentricity":0.0001194,"inclination_deg":53.2141,"raan_deg":66.3512,"arg_perigee_deg":90.7002,"mean_anomaly_deg":269.4127,"bstar":8.4661e-5,"rev_number":22391,"period_min":95.437438926252,"perigee_km":538.91180114129,"apogee_km":540.56378964243,"semimajor_km":6917.8747953919,"source":"CELESTRAK","updated_at":"2026-05-25T13:38:17.150037Z"}}